Guymon, OK

11:53 PM CDT on June 26, 2017 (GMT -0500)
Guymon Municipal

Weather History for KGUY - May, 2013

Change the Weather History Date:

Thursday, May 30, 2013

  Actual Average Record
Temperature  
Mean Temperature 76 °F 69 °F  
Max Temperature 94 °F 83 °F 100 °F (2011)
Min Temperature 58 °F 56 °F 48 °F (2016)
Degree Days  
Heating Degree Days 0 1  
Month to date heating degree days 98 94  
Since 1 July heating degree days 4311 4447  
Cooling Degree Days 11 5  
Month to date cooling degree days 171 88  
Year to date cooling degree days 196 103  
Growing Degree Days 26 (Base 50)    
Moisture  
Dew Point 36 °F    
Average Humidity 40    
Maximum Humidity 73    
Minimum Humidity 7    
Precipitation  
Precipitation T in 0.13 in 0.10 in (2014)
Month to date precipitation 0.16 2.32  
Year to date precipitation 2.35 6.13  
Snow  
Snow 0.00 in - - ()
Month to date snowfall 0.3  
Since 1 July snowfall 22.3  
Snow Depth 0.00 in    
Sea Level Pressure  
Sea Level Pressure 29.49 in    
Wind  
Wind Speed 14 mph (WNW)    
Max Wind Speed 30 mph    
Max Gust Speed 39 mph    
Visibility 10 miles    
Events Rain    
T = Trace of Precipitation, MM = Missing Value Source: NWS Daily Summary

Daily Weather History Graph

Daily Weather History Graph

Search for Another Location

Airport or City:

Trip Planner

Search our weather history database for the weather conditions in past years. The results will help you decide how hot, cold, wet, or windy it might be!

Date:

Astronomy

May. 30, 2013 Rise Set
Actual Time 6:29 AM CDT 8:58 PM CDT
Civil Twilight 5:59 AM CDT 9:28 PM CDT
Nautical Twilight 5:22 AM CDT 10:05 PM CDT
Astronomical Twilight 4:41 AM CDT 10:46 PM CDT
Moon 1:05 AM CDT (5/30) 12:33 PM CDT (5/30)
Length of Visible Light 15h 28m
Length of Day
14h 28m
Waning Gibbous, 62% of the Moon is Illuminated
May 30
Waning Gibbous
May 31
Last Quarter
Jun 8
New
Jun 16
First Quarter
Jun 23
Full

Hourly Weather History & Observations

Time (CDT) Temp. Dew Point Humidity Pressure Visibility Wind Dir Wind Speed Gust Speed Precip Events Conditions
12:53 AM 64.9 °F 55.0 °F 70% 29.37 in 10.0 mi North 10.4 mph - N/A   Clear
1:53 AM 62.1 °F 51.1 °F 67% 29.41 in 10.0 mi NNW 19.6 mph - N/A   Clear
2:53 AM 62.1 °F 48.0 °F 60% 29.43 in 10.0 mi NNW 16.1 mph - N/A   Clear
3:53 AM 61.0 °F 45.0 °F 56% 29.45 in 10.0 mi NNW 13.8 mph - N/A   Clear
4:53 AM 61.0 °F 44.1 °F 54% 29.48 in 10.0 mi NW 13.8 mph - N/A   Clear
5:53 AM 59.0 °F 44.1 °F 58% 29.52 in 10.0 mi WNW 11.5 mph - N/A   Clear
6:53 AM 60.1 °F 45.0 °F 57% 29.57 in 10.0 mi West 8.1 mph - N/A   Mostly Cloudy
7:53 AM 61.0 °F 46.0 °F 58% 29.61 in 10.0 mi Variable 3.5 mph - 0.00 in Rain Light Rain
8:53 AM 69.1 °F 46.9 °F 45% 29.60 in 10.0 mi NW 11.5 mph - 0.00 in   Partly Cloudy
9:53 AM 75.0 °F 41.0 °F 29% 29.59 in 10.0 mi NW 8.1 mph - N/A   Clear
10:53 AM 79.0 °F 39.0 °F 24% 29.58 in 10.0 mi SW 10.4 mph - N/A   Clear
11:53 AM 84.0 °F 37.9 °F 19% 29.55 in 10.0 mi SSW 23.0 mph 32.2 mph N/A   Clear
12:53 PM 86.0 °F 24.1 °F 10% 29.54 in 10.0 mi West 19.6 mph 29.9 mph N/A   Clear
1:53 PM 86.0 °F 26.1 °F 11% 29.53 in 10.0 mi West 16.1 mph 29.9 mph N/A   Clear
2:53 PM 88.0 °F 24.1 °F 10% 29.49 in 10.0 mi SW 26.5 mph 36.8 mph N/A   Clear
3:53 PM 91.0 °F 23.0 °F 8% 29.46 in 10.0 mi WSW 20.7 mph 31.1 mph N/A   Clear
4:53 PM 93.0 °F 21.9 °F 8% 29.43 in 10.0 mi WSW 17.3 mph 38.0 mph N/A   Clear
5:53 PM 93.9 °F 21.9 °F 7% 29.42 in 10.0 mi WSW 18.4 mph 25.3 mph N/A   Clear
6:53 PM 93.9 °F 21.9 °F 7% 29.40 in 10.0 mi SW 12.7 mph - N/A   Clear
7:53 PM 93.0 °F 21.0 °F 7% 29.40 in 10.0 mi SW 10.4 mph - N/A   Clear
8:53 PM 87.1 °F 26.1 °F 11% 29.43 in 10.0 mi NW 8.1 mph - N/A   Clear
9:53 PM 80.1 °F 19.9 °F 11% 29.47 in 10.0 mi NNE 10.4 mph - N/A   Clear
10:53 PM 73.0 °F 36.0 °F 26% 29.53 in 10.0 mi NNE 20.7 mph - N/A   Clear
11:53 PM 70.0 °F 44.1 °F 39% 29.57 in 10.0 mi North 12.7 mph - N/A   Clear